Home > Weather > Tallahassee > Past weeks

Flag for U.S.A. Weather for the Past 2 Weeks in Tallahassee, Florida, U.S.A.

Now
62 °F

Sunny.


Feels Like: 62 °F
Forecast: 42 / 59 °F
Wind: 13 mph from North

Location: Tallahassee Regional Airport

Current Time: Feb 13, 2016 at 5:19:03 PM

Latest Report: Feb 13, 2016 at 3:53 PM


Visibility: 10 mi

Pressure: 30.27 "Hg

Humidity: 13%

Dew point: 10 °F

Location of TallahasseeLocation

Historic Weather in Tallahassee — Graph

°F

Tallahassee Temperature Yesterday

Maximum temperature yesterday: 77 °F (at 1:53 PM)
Minimum temperature yesterday: 44 °F (at 4:53 AM)
Average temperature yesterday: 60 °F

High & Low Weather Summary for the Past Weeks

 TemperatureHumidityPressure
High79 °F (Feb 1, 3:53 PM)97% (Feb 2, 4:53 AM)30.40 "Hg (Feb 2, 4:53 AM)
Low28 °F (Feb 10, 3:53 AM)13% (Feb 13, 3:53 PM)29.78 "Hg (Feb 8, 4:53 PM)
Average53 °F63%30.12 "Hg
* Reported Jan 29 3:53 PM — Feb 13 3:53 PM, Tallahassee, Weather by CustomWeather, © 2016

Note: Actual official high and low records may vary slightly from our data, if they occured in-between our weather recording intervals... More about our weather records

Advertising

Tallahassee Weather History for the Previous 24 Hours

 ConditionsComfort  
Time TempWeatherWind HumidityBarometerVisibility
3:53 PM
Sat, Feb 13
62 °FSunny.13 mph13%30.27 "Hg10 mi
2:53 PM60 °FSunny.8 mph14%30.27 "Hg10 mi
1:53 PM60 °FSunny.15 mph17%30.31 "Hg10 mi
12:53 PM59 °FSunny.13 mph19%30.34 "Hg10 mi
11:53 AM55 °FSunny.10 mph23%30.35 "Hg10 mi
10:53 AM53 °FSunny.15 mph31%30.36 "Hg10 mi
9:53 AM51 °FSunny.13 mph36%30.35 "Hg10 mi
8:53 AM50 °FSunny.12 mph46%30.33 "Hg10 mi
7:53 AM48 °FSunny.7 mph52%30.30 "Hg10 mi
6:53 AM47 °FPassing clouds.9 mph64%30.28 "Hg10 mi
5:53 AM47 °FPassing clouds.5 mph69%30.24 "Hg10 mi
4:53 AM48 °FClear.3 mph71%30.21 "Hg10 mi
3:53 AM51 °FClear.3 mph63%30.19 "Hg10 mi
2:53 AM54 °FClear.7 mph72%30.18 "Hg10 mi
1:53 AM56 °FClear.6 mph90%30.17 "Hg10 mi
12:53 AM54 °FFog.6 mph93%30.17 "Hg5 mi
11:53 PM
Fri, Feb 12
56 °FClear.7 mph90%30.17 "Hg10 mi
10:53 PM57 °FClear.7 mph90%30.17 "Hg10 mi
9:53 PM60 °FPassing clouds.8 mph83%30.16 "Hg10 mi
8:53 PM62 °FClear.8 mph78%30.15 "Hg10 mi
7:53 PM64 °FClear.9 mph73%30.14 "Hg10 mi
6:53 PM66 °FClear.8 mph65%30.12 "Hg10 mi
5:53 PM70 °FPassing clouds.13 mph53%30.10 "Hg10 mi
Weather by CustomWeather, © 2016

See weather overviewHow to use our weather pages